owner,sensor,date,latitude,longitude,vertical_datum,wind_speed,wind_to_direction,wind_speed_of_gust,qcFlag 
WAVCIS,ioos:station:WAVCIS:CSI06:1,2013-02-01T00:00:00Z,28.8667,-90.4833,10.0,2.58,228.0,,'11111222,11111222,99999999' 
WAVCIS,ioos:station:WAVCIS:CSI06:1,2013-02-01T01:00:00Z,28.8667,-90.4833,10.0,1.521,245.0,,'11111222,11111222,99999999' 
WAVCIS,ioos:station:WAVCIS:CSI06:1,2013-02-01T02:00:00Z,28.8667,-90.4833,10.0,1.846,214.0,,'11111222,11111222,99999999' 
WAVCIS,ioos:station:WAVCIS:CSI06:1,2013-02-01T03:00:00Z,28.8667,-90.4833,10.0,2.617,228.0,,'11111222,11111222,99999999' 
WAVCIS,ioos:station:WAVCIS:CSI06:1,2013-02-01T04:00:00Z,28.8667,-90.4833,10.0,2.409,248.0,,'11111222,11111222,99999999' 
WAVCIS,ioos:station:WAVCIS:CSI06:1,2013-02-01T05:00:00Z,28.8667,-90.4833,10.0,4.073,290.0,,'11111222,11111222,99999999' 
WAVCIS,ioos:station:WAVCIS:CSI06:1,2013-02-01T06:00:00Z,28.8667,-90.4833,10.0,4.255,290.0,,'11111222,11111222,99999999' 
WAVCIS,ioos:station:WAVCIS:CSI06:1,2013-02-01T07:00:00Z,28.8667,-90.4833,10.0,4.968,303.0,,'11111222,11111222,99999999' 
WAVCIS,ioos:station:WAVCIS:CSI06:1,2013-02-01T08:00:00Z,28.8667,-90.4833,10.0,4.351,319.0,,'11111222,11111222,99999999' 
WAVCIS,ioos:station:WAVCIS:CSI06:1,2013-02-01T09:00:00Z,28.8667,-90.4833,10.0,4.049,328.0,,'11111222,11111222,99999999' 
WAVCIS,ioos:station:WAVCIS:CSI06:1,2013-02-01T10:00:00Z,28.8667,-90.4833,10.0,2.615,335.0,,'11111222,11111222,99999999' 
WAVCIS,ioos:station:WAVCIS:CSI06:1,2013-02-01T11:00:00Z,28.8667,-90.4833,10.0,3.337,337.0,,'11111222,11111222,99999999' 
WAVCIS,ioos:station:WAVCIS:CSI06:1,2013-02-01T12:00:00Z,28.8667,-90.4833,10.0,3.2,349.0,,'11111222,11111222,99999999' 
WAVCIS,ioos:station:WAVCIS:CSI06:1,2013-02-01T13:00:00Z,28.8667,-90.4833,10.0,4.577,337.0,,'11111222,11111222,99999999' 
WAVCIS,ioos:station:WAVCIS:CSI06:1,2013-02-01T14:00:00Z,28.8667,-90.4833,10.0,4.007,9.0,,'11111222,11111222,99999999' 
WAVCIS,ioos:station:WAVCIS:CSI06:1,2013-02-01T15:00:00Z,28.8667,-90.4833,10.0,5.323,13.0,,'11111222,11111222,99999999' 
WAVCIS,ioos:station:WAVCIS:CSI06:1,2013-02-01T16:00:00Z,28.8667,-90.4833,10.0,4.583,17.0,,'11111222,11111222,99999999' 
WAVCIS,ioos:station:WAVCIS:CSI06:1,2013-02-01T17:00:00Z,28.8667,-90.4833,10.0,4.52,16.0,,'11111222,11111222,99999999' 
WAVCIS,ioos:station:WAVCIS:CSI06:1,2013-02-01T18:00:00Z,28.8667,-90.4833,10.0,4.368,29.0,,'11111222,11111222,99999999' 
WAVCIS,ioos:station:WAVCIS:CSI06:1,2013-02-01T19:00:00Z,28.8667,-90.4833,10.0,3.57,53.0,,'11111222,11111222,99999999' 
WAVCIS,ioos:station:WAVCIS:CSI06:1,2013-02-01T20:00:00Z,28.8667,-90.4833,10.0,2.7,60.0,,'11111222,11111222,99999999' 
WAVCIS,ioos:station:WAVCIS:CSI06:1,2013-02-01T21:00:00Z,28.8667,-90.4833,10.0,3.933,90.0,,'11111222,11111222,99999999' 
WAVCIS,ioos:station:WAVCIS:CSI06:1,2013-02-01T22:00:00Z,28.8667,-90.4833,10.0,4.057,89.0,,'11111222,11111222,99999999' 
WAVCIS,ioos:station:WAVCIS:CSI06:1,2013-02-01T23:00:00Z,28.8667,-90.4833,10.0,4.254,80.0,,'11111222,11111222,99999999' 
WAVCIS,ioos:station:WAVCIS:CSI06:1,2013-02-02T00:00:00Z,28.8667,-90.4833,10.0,4.752,86.0,,'11111222,11111222,99999999' 
WAVCIS,ioos:station:WAVCIS:CSI06:1,2013-02-02T01:00:00Z,28.8667,-90.4833,10.0,5.306,87.0,,'11111222,11111222,99999999' 
WAVCIS,ioos:station:WAVCIS:CSI06:1,2013-02-02T02:00:00Z,28.8667,-90.4833,10.0,5.696,89.0,,'11111222,11111222,99999999' 
WAVCIS,ioos:station:WAVCIS:CSI06:1,2013-02-02T03:00:00Z,28.8667,-90.4833,10.0,6.122,75.0,,'11111222,11111222,99999999' 
WAVCIS,ioos:station:WAVCIS:CSI06:1,2013-02-02T04:00:00Z,28.8667,-90.4833,10.0,5.608,78.0,,'11111222,11111222,99999999' 
WAVCIS,ioos:station:WAVCIS:CSI06:1,2013-02-02T05:00:00Z,28.8667,-90.4833,10.0,5.402,87.0,,'11111222,11111222,99999999' 
WAVCIS,ioos:station:WAVCIS:CSI06:1,2013-02-02T06:00:00Z,28.8667,-90.4833,10.0,5.231,95.0,,'11111222,11111222,99999999' 
WAVCIS,ioos:station:WAVCIS:CSI06:1,2013-02-02T07:00:00Z,28.8667,-90.4833,10.0,5.228,88.0,,'11111222,11111222,99999999' 
WAVCIS,ioos:station:WAVCIS:CSI06:1,2013-02-02T08:00:00Z,28.8667,-90.4833,10.0,5.514,63.0,,'11111222,11111222,99999999' 
WAVCIS,ioos:station:WAVCIS:CSI06:1,2013-02-02T09:00:00Z,28.8667,-90.4833,10.0,5.876,58.0,,'11111222,11111222,99999999' 
WAVCIS,ioos:station:WAVCIS:CSI06:1,2013-02-02T10:00:00Z,28.8667,-90.4833,10.0,6.575,57.0,,'11111222,11111222,99999999' 
WAVCIS,ioos:station:WAVCIS:CSI06:1,2013-02-02T11:00:00Z,28.8667,-90.4833,10.0,8.75,57.0,,'11111222,11111222,99999999' 
WAVCIS,ioos:station:WAVCIS:CSI06:1,2013-02-02T12:00:00Z,28.8667,-90.4833,10.0,9.74,60.0,,'11111222,11111222,99999999' 
WAVCIS,ioos:station:WAVCIS:CSI06:1,2013-02-02T13:00:00Z,28.8667,-90.4833,10.0,9.56,76.0,,'11111222,11111222,99999999' 
WAVCIS,ioos:station:WAVCIS:CSI06:1,2013-02-02T14:00:00Z,28.8667,-90.4833,10.0,9.22,68.0,,'11111222,11111222,99999999' 
WAVCIS,ioos:station:WAVCIS:CSI06:1,2013-02-02T15:00:00Z,28.8667,-90.4833,10.0,8.69,77.0,,'11111222,11111222,99999999' 
WAVCIS,ioos:station:WAVCIS:CSI06:1,2013-02-02T16:00:00Z,28.8667,-90.4833,10.0,8.73,88.0,,'11111222,11111222,99999999' 
WAVCIS,ioos:station:WAVCIS:CSI06:1,2013-02-02T17:00:00Z,28.8667,-90.4833,10.0,7.72,90.0,,'11111222,11111222,99999999' 
WAVCIS,ioos:station:WAVCIS:CSI06:1,2013-02-02T18:00:00Z,28.8667,-90.4833,10.0,6.33,87.0,,'11111222,11111222,99999999' 
WAVCIS,ioos:station:WAVCIS:CSI06:1,2013-02-02T19:00:00Z,28.8667,-90.4833,10.0,5.345,89.0,,'11111222,11111222,99999999' 
WAVCIS,ioos:station:WAVCIS:CSI06:1,2013-02-02T20:00:00Z,28.8667,-90.4833,10.0,4.289,86.0,,'11111222,11111222,99999999' 
WAVCIS,ioos:station:WAVCIS:CSI06:1,2013-02-02T21:00:00Z,28.8667,-90.4833,10.0,3.714,90.0,,'11111222,11111222,99999999' 
WAVCIS,ioos:station:WAVCIS:CSI06:1,2013-02-02T22:00:00Z,28.8667,-90.4833,10.0,2.283,76.0,,'11111222,11111222,99999999' 
WAVCIS,ioos:station:WAVCIS:CSI06:1,2013-02-02T23:00:00Z,28.8667,-90.4833,10.0,2.827,163.0,,'11111222,11111222,99999999' 
WAVCIS,ioos:station:WAVCIS:CSI06:1,2013-02-03T00:00:00Z,28.8667,-90.4833,10.0,2.382,178.0,,'11111222,11111222,99999999' 
WAVCIS,ioos:station:WAVCIS:CSI06:1,2013-02-03T01:00:00Z,28.8667,-90.4833,10.0,1.441,192.0,,'11111222,11111222,99999999' 
WAVCIS,ioos:station:WAVCIS:CSI06:1,2013-02-03T02:00:00Z,28.8667,-90.4833,10.0,0.186,246.0,,'11111222,11111222,99999999' 
WAVCIS,ioos:station:WAVCIS:CSI06:1,2013-02-03T03:00:00Z,28.8667,-90.4833,10.0,1.914,230.0,,'11111222,11111222,99999999' 
WAVCIS,ioos:station:WAVCIS:CSI06:1,2013-02-03T04:00:00Z,28.8667,-90.4833,10.0,3.177,263.0,,'11111222,11111222,99999999' 
WAVCIS,ioos:station:WAVCIS:CSI06:1,2013-02-03T05:00:00Z,28.8667,-90.4833,10.0,3.118,293.0,,'11111222,11111222,99999999' 
WAVCIS,ioos:station:WAVCIS:CSI06:1,2013-02-03T06:00:00Z,28.8667,-90.4833,10.0,3.22,301.0,,'11111222,11111222,99999999' 
WAVCIS,ioos:station:WAVCIS:CSI06:1,2013-02-03T07:00:00Z,28.8667,-90.4833,10.0,3.005,282.0,,'11111222,11111222,99999999' 
WAVCIS,ioos:station:WAVCIS:CSI06:1,2013-02-03T08:00:00Z,28.8667,-90.4833,10.0,3.079,280.0,,'11111222,11111222,99999999' 
WAVCIS,ioos:station:WAVCIS:CSI06:1,2013-02-03T09:00:00Z,28.8667,-90.4833,10.0,4.56,308.0,,'11111222,11111222,99999999' 
WAVCIS,ioos:station:WAVCIS:CSI06:1,2013-02-03T10:00:00Z,28.8667,-90.4833,10.0,4.244,313.0,,'11111222,11111222,99999999' 
WAVCIS,ioos:station:WAVCIS:CSI06:1,2013-02-03T11:00:00Z,28.8667,-90.4833,10.0,4.353,311.0,,'11111222,11111222,99999999' 
WAVCIS,ioos:station:WAVCIS:CSI06:1,2013-02-03T12:00:00Z,28.8667,-90.4833,10.0,4.597,347.0,,'11111222,11111222,99999999' 
WAVCIS,ioos:station:WAVCIS:CSI06:1,2013-02-03T13:00:00Z,28.8667,-90.4833,10.0,5.646,12.0,,'11111222,11111222,99999999' 
WAVCIS,ioos:station:WAVCIS:CSI06:1,2013-02-03T14:00:00Z,28.8667,-90.4833,10.0,6.822,12.0,,'11111222,11111222,99999999' 
WAVCIS,ioos:station:WAVCIS:CSI06:1,2013-02-03T15:00:00Z,28.8667,-90.4833,10.0,6.557,32.0,,'11111222,11111222,99999999' 
WAVCIS,ioos:station:WAVCIS:CSI06:1,2013-02-03T16:00:00Z,28.8667,-90.4833,10.0,6.251,45.0,,'11111222,11111222,99999999' 
WAVCIS,ioos:station:WAVCIS:CSI06:1,2013-02-03T17:00:00Z,28.8667,-90.4833,10.0,6.848,51.0,,'11111222,11111222,99999999' 
WAVCIS,ioos:station:WAVCIS:CSI06:1,2013-02-03T18:00:00Z,28.8667,-90.4833,10.0,6.188,54.0,,'11111222,11111222,99999999' 
WAVCIS,ioos:station:WAVCIS:CSI06:1,2013-02-03T19:00:00Z,28.8667,-90.4833,10.0,6.434,44.0,,'11111222,11111222,99999999' 
WAVCIS,ioos:station:WAVCIS:CSI06:1,2013-02-03T20:00:00Z,28.8667,-90.4833,10.0,4.432,54.0,,'11111222,11111222,99999999' 
WAVCIS,ioos:station:WAVCIS:CSI06:1,2013-02-03T21:00:00Z,28.8667,-90.4833,10.0,3.426,68.0,,'11111222,11111222,99999999' 
WAVCIS,ioos:station:WAVCIS:CSI06:1,2013-02-03T22:00:00Z,28.8667,-90.4833,10.0,2.7,87.0,,'11111222,11111222,99999999' 
WAVCIS,ioos:station:WAVCIS:CSI06:1,2013-02-03T23:00:00Z,28.8667,-90.4833,10.0,3.195,122.0,,'11111222,11111222,99999999' 
WAVCIS,ioos:station:WAVCIS:CSI06:1,2013-02-04T00:00:00Z,28.8667,-90.4833,10.0,2.454,120.0,,'11111222,11111222,99999999' 
WAVCIS,ioos:station:WAVCIS:CSI06:1,2013-02-04T01:00:00Z,28.8667,-90.4833,10.0,2.77,131.0,,'11111222,11111222,99999999' 
WAVCIS,ioos:station:WAVCIS:CSI06:1,2013-02-04T02:00:00Z,28.8667,-90.4833,10.0,2.616,121.0,,'11111222,11111222,99999999' 
WAVCIS,ioos:station:WAVCIS:CSI06:1,2013-02-04T03:00:00Z,28.8667,-90.4833,10.0,3.535,81.0,,'11111222,11111222,99999999' 
WAVCIS,ioos:station:WAVCIS:CSI06:1,2013-02-04T04:00:00Z,28.8667,-90.4833,10.0,3.098,84.0,,'11111222,11111222,99999999' 
WAVCIS,ioos:station:WAVCIS:CSI06:1,2013-02-04T05:00:00Z,28.8667,-90.4833,10.0,2.029,141.0,,'11111222,11111222,99999999' 
WAVCIS,ioos:station:WAVCIS:CSI06:1,2013-02-04T06:00:00Z,28.8667,-90.4833,10.0,2.241,137.0,,'11111222,11111222,99999999' 
WAVCIS,ioos:station:WAVCIS:CSI06:1,2013-02-04T07:00:00Z,28.8667,-90.4833,10.0,2.802,132.0,,'11111222,11111222,99999999' 
WAVCIS,ioos:station:WAVCIS:CSI06:1,2013-02-04T08:00:00Z,28.8667,-90.4833,10.0,3.32,136.0,,'11111222,11111222,99999999' 
WAVCIS,ioos:station:WAVCIS:CSI06:1,2013-02-04T09:00:00Z,28.8667,-90.4833,10.0,4.084,124.0,,'11111222,11111222,99999999' 
WAVCIS,ioos:station:WAVCIS:CSI06:1,2013-02-04T10:00:00Z,28.8667,-90.4833,10.0,4.696,124.0,,'11111222,11111222,99999999' 
WAVCIS,ioos:station:WAVCIS:CSI06:1,2013-02-04T11:00:00Z,28.8667,-90.4833,10.0,5.074,118.0,,'11111222,11111222,99999999' 
WAVCIS,ioos:station:WAVCIS:CSI06:1,2013-02-04T12:00:00Z,28.8667,-90.4833,10.0,5.785,113.0,,'11111222,11111222,99999999' 
WAVCIS,ioos:station:WAVCIS:CSI06:1,2013-02-04T13:00:00Z,28.8667,-90.4833,10.0,5.916,121.0,,'11111222,11111222,99999999' 
WAVCIS,ioos:station:WAVCIS:CSI06:1,2013-02-04T14:00:00Z,28.8667,-90.4833,10.0,5.579,128.0,,'11111222,11111222,99999999' 
WAVCIS,ioos:station:WAVCIS:CSI06:1,2013-02-04T15:00:00Z,28.8667,-90.4833,10.0,6.299,136.0,,'11111222,11111222,99999999' 
WAVCIS,ioos:station:WAVCIS:CSI06:1,2013-02-04T16:00:00Z,28.8667,-90.4833,10.0,6.258,140.0,,'11111222,11111222,99999999' 
WAVCIS,ioos:station:WAVCIS:CSI06:1,2013-02-04T17:00:00Z,28.8667,-90.4833,10.0,7.59,140.0,,'11111222,11111222,99999999' 
WAVCIS,ioos:station:WAVCIS:CSI06:1,2013-02-04T18:00:00Z,28.8667,-90.4833,10.0,8.16,139.0,,'11111222,11111222,99999999' 
WAVCIS,ioos:station:WAVCIS:CSI06:1,2013-02-04T19:00:00Z,28.8667,-90.4833,10.0,7.36,145.0,,'11111222,11111222,99999999' 
WAVCIS,ioos:station:WAVCIS:CSI06:1,2013-02-04T20:00:00Z,28.8667,-90.4833,10.0,8.64,138.0,,'11111222,11111222,99999999' 
WAVCIS,ioos:station:WAVCIS:CSI06:1,2013-02-04T21:00:00Z,28.8667,-90.4833,10.0,8.75,137.0,,'11111222,11111222,99999999' 
WAVCIS,ioos:station:WAVCIS:CSI06:1,2013-02-04T22:00:00Z,28.8667,-90.4833,10.0,8.83,141.0,,'11111222,11111222,99999999' 
WAVCIS,ioos:station:WAVCIS:CSI06:1,2013-02-04T23:00:00Z,28.8667,-90.4833,10.0,9.35,144.0,,'11111222,11111222,99999999' 
WAVCIS,ioos:station:WAVCIS:CSI06:1,2013-02-05T00:00:00Z,28.8667,-90.4833,10.0,10.43,144.0,,'11111222,11111222,99999999' 
WAVCIS,ioos:station:WAVCIS:CSI06:1,2013-02-05T01:00:00Z,28.8667,-90.4833,10.0,12.12,160.0,,'11111222,11111222,99999999' 
WAVCIS,ioos:station:WAVCIS:CSI06:1,2013-02-05T02:00:00Z,28.8667,-90.4833,10.0,9.52,185.0,,'11111222,11111222,99999999' 
WAVCIS,ioos:station:WAVCIS:CSI06:1,2013-02-05T03:00:00Z,28.8667,-90.4833,10.0,2.533,290.0,,'11111222,11111222,99999999' 
WAVCIS,ioos:station:WAVCIS:CSI06:1,2013-02-05T04:00:00Z,28.8667,-90.4833,10.0,10.74,330.0,,'11111222,11111222,99999999' 
WAVCIS,ioos:station:WAVCIS:CSI06:1,2013-02-05T05:00:00Z,28.8667,-90.4833,10.0,6.444,318.0,,'11111222,11111222,99999999' 
WAVCIS,ioos:station:WAVCIS:CSI06:1,2013-02-05T06:00:00Z,28.8667,-90.4833,10.0,2.815,202.0,,'11111222,11111222,99999999' 
WAVCIS,ioos:station:WAVCIS:CSI06:1,2013-02-05T07:00:00Z,28.8667,-90.4833,10.0,2.112,251.0,,'11111222,11111222,99999999' 
WAVCIS,ioos:station:WAVCIS:CSI06:1,2013-02-05T08:00:00Z,28.8667,-90.4833,10.0,1.681,254.0,,'11111222,11111222,99999999' 
WAVCIS,ioos:station:WAVCIS:CSI06:1,2013-02-05T09:00:00Z,28.8667,-90.4833,10.0,2.171,237.0,,'11111222,11111222,99999999' 
WAVCIS,ioos:station:WAVCIS:CSI06:1,2013-02-05T10:00:00Z,28.8667,-90.4833,10.0,3.328,272.0,,'11111222,11111222,99999999' 
WAVCIS,ioos:station:WAVCIS:CSI06:1,2013-02-05T11:00:00Z,28.8667,-90.4833,10.0,4.32,332.0,,'11111222,11111222,99999999' 
WAVCIS,ioos:station:WAVCIS:CSI06:1,2013-02-05T12:00:00Z,28.8667,-90.4833,10.0,4.644,12.0,,'11111222,11111222,99999999' 
WAVCIS,ioos:station:WAVCIS:CSI06:1,2013-02-05T13:00:00Z,28.8667,-90.4833,10.0,4.627,29.0,,'11111222,11111222,99999999' 
WAVCIS,ioos:station:WAVCIS:CSI06:1,2013-02-05T14:00:00Z,28.8667,-90.4833,10.0,4.245,51.0,,'11111222,11111222,99999999' 
WAVCIS,ioos:station:WAVCIS:CSI06:1,2013-02-05T15:00:00Z,28.8667,-90.4833,10.0,4.196,69.0,,'11111222,11111222,99999999' 
WAVCIS,ioos:station:WAVCIS:CSI06:1,2013-02-05T16:00:00Z,28.8667,-90.4833,10.0,5.076,64.0,,'11111222,11111222,99999999' 
WAVCIS,ioos:station:WAVCIS:CSI06:1,2013-02-05T17:00:00Z,28.8667,-90.4833,10.0,2.508,96.0,,'11111222,11111222,99999999' 
WAVCIS,ioos:station:WAVCIS:CSI06:1,2013-02-05T18:00:00Z,28.8667,-90.4833,10.0,0.397,89.0,,'11111222,11111222,99999999' 
WAVCIS,ioos:station:WAVCIS:CSI06:1,2013-02-05T19:00:00Z,28.8667,-90.4833,10.0,2.996,343.0,,'11111222,11111222,99999999' 
WAVCIS,ioos:station:WAVCIS:CSI06:1,2013-02-05T20:00:00Z,28.8667,-90.4833,10.0,0.146,93.0,,'11111222,11111222,99999999' 
WAVCIS,ioos:station:WAVCIS:CSI06:1,2013-02-05T21:00:00Z,28.8667,-90.4833,10.0,1.564,63.0,,'11111222,11111222,99999999' 
WAVCIS,ioos:station:WAVCIS:CSI06:1,2013-02-05T22:00:00Z,28.8667,-90.4833,10.0,2.58,15.0,,'11111222,11111222,99999999' 
WAVCIS,ioos:station:WAVCIS:CSI06:1,2013-02-05T23:00:00Z,28.8667,-90.4833,10.0,1.476,57.0,,'11111222,11111222,99999999' 
WAVCIS,ioos:station:WAVCIS:CSI06:1,2013-02-06T00:00:00Z,28.8667,-90.4833,10.0,2.582,24.0,,'11111222,11111222,99999999' 
WAVCIS,ioos:station:WAVCIS:CSI06:1,2013-02-06T01:00:00Z,28.8667,-90.4833,10.0,0.927,38.0,,'11111222,11111222,99999999' 
WAVCIS,ioos:station:WAVCIS:CSI06:1,2013-02-06T02:00:00Z,28.8667,-90.4833,10.0,1.246,41.0,,'11111222,11111222,99999999' 
WAVCIS,ioos:station:WAVCIS:CSI06:1,2013-02-06T03:00:00Z,28.8667,-90.4833,10.0,3.041,46.0,,'11111222,11111222,99999999' 
WAVCIS,ioos:station:WAVCIS:CSI06:1,2013-02-06T04:00:00Z,28.8667,-90.4833,10.0,3.501,41.0,,'11111222,11111222,99999999' 
WAVCIS,ioos:station:WAVCIS:CSI06:1,2013-02-06T05:00:00Z,28.8667,-90.4833,10.0,4.287,62.0,,'11111222,11111222,99999999' 
WAVCIS,ioos:station:WAVCIS:CSI06:1,2013-02-06T06:00:00Z,28.8667,-90.4833,10.0,4.149,84.0,,'11111222,11111222,99999999' 
WAVCIS,ioos:station:WAVCIS:CSI06:1,2013-02-06T07:00:00Z,28.8667,-90.4833,10.0,3.794,100.0,,'11111222,11111222,99999999' 
WAVCIS,ioos:station:WAVCIS:CSI06:1,2013-02-06T08:00:00Z,28.8667,-90.4833,10.0,4.423,99.0,,'11111222,11111222,99999999' 
WAVCIS,ioos:station:WAVCIS:CSI06:1,2013-02-06T09:00:00Z,28.8667,-90.4833,10.0,3.506,72.0,,'11111222,11111222,99999999' 
WAVCIS,ioos:station:WAVCIS:CSI06:1,2013-02-06T10:00:00Z,28.8667,-90.4833,10.0,3.83,54.0,,'11111222,11111222,99999999' 
WAVCIS,ioos:station:WAVCIS:CSI06:1,2013-02-06T11:00:00Z,28.8667,-90.4833,10.0,6.523,58.0,,'11111222,11111222,99999999' 
WAVCIS,ioos:station:WAVCIS:CSI06:1,2013-02-06T12:00:00Z,28.8667,-90.4833,10.0,7.8,64.0,,'11111222,11111222,99999999' 
WAVCIS,ioos:station:WAVCIS:CSI06:1,2013-02-06T13:00:00Z,28.8667,-90.4833,10.0,7.78,66.0,,'11111222,11111222,99999999' 
WAVCIS,ioos:station:WAVCIS:CSI06:1,2013-02-06T14:00:00Z,28.8667,-90.4833,10.0,9.42,72.0,,'11111222,11111222,99999999' 
WAVCIS,ioos:station:WAVCIS:CSI06:1,2013-02-06T15:00:00Z,28.8667,-90.4833,10.0,10.03,76.0,,'11111222,11111222,99999999' 
WAVCIS,ioos:station:WAVCIS:CSI06:1,2013-02-06T16:00:00Z,28.8667,-90.4833,10.0,9.96,76.0,,'11111222,11111222,99999999' 
WAVCIS,ioos:station:WAVCIS:CSI06:1,2013-02-06T17:00:00Z,28.8667,-90.4833,10.0,10.68,73.0,,'11111222,11111222,99999999' 
WAVCIS,ioos:station:WAVCIS:CSI06:1,2013-02-06T18:00:00Z,28.8667,-90.4833,10.0,11.33,72.0,,'11111222,11111222,99999999' 
WAVCIS,ioos:station:WAVCIS:CSI06:1,2013-02-06T19:00:00Z,28.8667,-90.4833,10.0,10.88,82.0,,'11111222,11111222,99999999' 
WAVCIS,ioos:station:WAVCIS:CSI06:1,2013-02-06T20:00:00Z,28.8667,-90.4833,10.0,10.51,84.0,,'11111222,11111222,99999999' 
WAVCIS,ioos:station:WAVCIS:CSI06:1,2013-02-06T21:00:00Z,28.8667,-90.4833,10.0,10.45,77.0,,'11111222,11111222,99999999' 
WAVCIS,ioos:station:WAVCIS:CSI06:1,2013-02-06T22:00:00Z,28.8667,-90.4833,10.0,9.93,75.0,,'11111222,11111222,99999999' 
WAVCIS,ioos:station:WAVCIS:CSI06:1,2013-02-06T23:00:00Z,28.8667,-90.4833,10.0,9.87,76.0,,'11111222,11111222,99999999' 
WAVCIS,ioos:station:WAVCIS:CSI06:1,2013-02-07T00:00:00Z,28.8667,-90.4833,10.0,10.85,80.0,,'11111222,11111222,99999999' 
WAVCIS,ioos:station:WAVCIS:CSI06:1,2013-02-07T01:00:00Z,28.8667,-90.4833,10.0,12.74,94.0,,'11111222,11111222,99999999' 
WAVCIS,ioos:station:WAVCIS:CSI06:1,2013-02-07T02:00:00Z,28.8667,-90.4833,10.0,10.62,111.0,,'11111222,11111222,99999999' 
WAVCIS,ioos:station:WAVCIS:CSI06:1,2013-02-07T03:00:00Z,28.8667,-90.4833,10.0,12.85,117.0,,'11111222,11111222,99999999' 
WAVCIS,ioos:station:WAVCIS:CSI06:1,2013-02-07T04:00:00Z,28.8667,-90.4833,10.0,12.57,119.0,,'11111222,11111222,99999999' 
WAVCIS,ioos:station:WAVCIS:CSI06:1,2013-02-07T05:00:00Z,28.8667,-90.4833,10.0,14.0,120.0,,'11111222,11111222,99999999' 
WAVCIS,ioos:station:WAVCIS:CSI06:1,2013-02-07T06:00:00Z,28.8667,-90.4833,10.0,14.78,121.0,,'11111222,11111222,99999999' 
WAVCIS,ioos:station:WAVCIS:CSI06:1,2013-02-07T07:00:00Z,28.8667,-90.4833,10.0,16.71,128.0,,'11111222,11111222,99999999' 
WAVCIS,ioos:station:WAVCIS:CSI06:1,2013-02-07T08:00:00Z,28.8667,-90.4833,10.0,15.19,158.0,,'11111222,11111222,99999999' 
WAVCIS,ioos:station:WAVCIS:CSI06:1,2013-02-07T09:00:00Z,28.8667,-90.4833,10.0,15.46,171.0,,'11111222,11111222,99999999' 
WAVCIS,ioos:station:WAVCIS:CSI06:1,2013-02-07T10:00:00Z,28.8667,-90.4833,10.0,9.89,188.0,,'11111222,11111222,99999999' 
WAVCIS,ioos:station:WAVCIS:CSI06:1,2013-02-07T11:00:00Z,28.8667,-90.4833,10.0,10.73,236.0,,'11111222,11111222,99999999' 
WAVCIS,ioos:station:WAVCIS:CSI06:1,2013-02-07T12:00:00Z,28.8667,-90.4833,10.0,11.12,297.0,,'11111222,11111222,99999999' 
WAVCIS,ioos:station:WAVCIS:CSI06:1,2013-02-07T13:00:00Z,28.8667,-90.4833,10.0,9.45,13.0,,'11111222,11111222,99999999' 
WAVCIS,ioos:station:WAVCIS:CSI06:1,2013-02-07T14:00:00Z,28.8667,-90.4833,10.0,8.99,14.0,,'11111222,11111222,99999999' 
WAVCIS,ioos:station:WAVCIS:CSI06:1,2013-02-07T15:00:00Z,28.8667,-90.4833,10.0,6.852,38.0,,'11111222,11111222,99999999' 
WAVCIS,ioos:station:WAVCIS:CSI06:1,2013-02-07T16:00:00Z,28.8667,-90.4833,10.0,3.588,43.0,,'11111222,11111222,99999999' 
WAVCIS,ioos:station:WAVCIS:CSI06:1,2013-02-07T17:00:00Z,28.8667,-90.4833,10.0,1.938,2.0,,'11111222,11111222,99999999' 
WAVCIS,ioos:station:WAVCIS:CSI06:1,2013-02-07T18:00:00Z,28.8667,-90.4833,10.0,3.781,332.0,,'11111222,11111222,99999999' 
WAVCIS,ioos:station:WAVCIS:CSI06:1,2013-02-07T19:00:00Z,28.8667,-90.4833,10.0,4.286,333.0,,'11111222,11111222,99999999' 
WAVCIS,ioos:station:WAVCIS:CSI06:1,2013-02-07T20:00:00Z,28.8667,-90.4833,10.0,1.946,315.0,,'11111222,11111222,99999999' 
WAVCIS,ioos:station:WAVCIS:CSI06:1,2013-02-07T21:00:00Z,28.8667,-90.4833,10.0,2.068,279.0,,'11111222,11111222,99999999' 
WAVCIS,ioos:station:WAVCIS:CSI06:1,2013-02-07T22:00:00Z,28.8667,-90.4833,10.0,2.59,272.0,,'11111222,11111222,99999999' 
WAVCIS,ioos:station:WAVCIS:CSI06:1,2013-02-07T23:00:00Z,28.8667,-90.4833,10.0,2.991,280.0,,'11111222,11111222,99999999' 
WAVCIS,ioos:station:WAVCIS:CSI06:1,2013-02-08T00:00:00Z,28.8667,-90.4833,10.0,2.884,263.0,,'11111222,11111222,99999999' 
WAVCIS,ioos:station:WAVCIS:CSI06:1,2013-02-08T01:00:00Z,28.8667,-90.4833,10.0,1.177,262.0,,'11111222,11111222,99999999' 
WAVCIS,ioos:station:WAVCIS:CSI06:1,2013-02-08T02:00:00Z,28.8667,-90.4833,10.0,1.801,238.0,,'11111222,11111222,99999999' 
WAVCIS,ioos:station:WAVCIS:CSI06:1,2013-02-08T03:00:00Z,28.8667,-90.4833,10.0,2.004,241.0,,'11111222,11111222,99999999' 
WAVCIS,ioos:station:WAVCIS:CSI06:1,2013-02-08T04:00:00Z,28.8667,-90.4833,10.0,2.205,236.0,,'11111222,11111222,99999999' 
WAVCIS,ioos:station:WAVCIS:CSI06:1,2013-02-08T05:00:00Z,28.8667,-90.4833,10.0,2.781,294.0,,'11111222,11111222,99999999' 
WAVCIS,ioos:station:WAVCIS:CSI06:1,2013-02-08T06:00:00Z,28.8667,-90.4833,10.0,2.734,281.0,,'11111222,11111222,99999999' 
WAVCIS,ioos:station:WAVCIS:CSI06:1,2013-02-08T07:00:00Z,28.8667,-90.4833,10.0,3.661,316.0,,'11111222,11111222,99999999' 
WAVCIS,ioos:station:WAVCIS:CSI06:1,2013-02-08T08:00:00Z,28.8667,-90.4833,10.0,2.686,302.0,,'11111222,11111222,99999999' 
WAVCIS,ioos:station:WAVCIS:CSI06:1,2013-02-08T09:00:00Z,28.8667,-90.4833,10.0,4.682,309.0,,'11111222,11111222,99999999' 
WAVCIS,ioos:station:WAVCIS:CSI06:1,2013-02-08T10:00:00Z,28.8667,-90.4833,10.0,3.814,291.0,,'11111222,11111222,99999999' 
WAVCIS,ioos:station:WAVCIS:CSI06:1,2013-02-08T11:00:00Z,28.8667,-90.4833,10.0,5.341,302.0,,'11111222,11111222,99999999' 
WAVCIS,ioos:station:WAVCIS:CSI06:1,2013-02-08T12:00:00Z,28.8667,-90.4833,10.0,7.47,323.0,,'11111222,11111222,99999999' 
WAVCIS,ioos:station:WAVCIS:CSI06:1,2013-02-08T13:00:00Z,28.8667,-90.4833,10.0,5.791,334.0,,'11111222,11111222,99999999' 
WAVCIS,ioos:station:WAVCIS:CSI06:1,2013-02-08T14:00:00Z,28.8667,-90.4833,10.0,3.675,327.0,,'11111222,11111222,99999999' 
WAVCIS,ioos:station:WAVCIS:CSI06:1,2013-02-08T15:00:00Z,28.8667,-90.4833,10.0,3.962,299.0,,'11111222,11111222,99999999' 
WAVCIS,ioos:station:WAVCIS:CSI06:1,2013-02-08T16:00:00Z,28.8667,-90.4833,10.0,3.39,277.0,,'11111222,11111222,99999999' 
WAVCIS,ioos:station:WAVCIS:CSI06:1,2013-02-08T17:00:00Z,28.8667,-90.4833,10.0,2.276,253.0,,'11111222,11111222,99999999' 
WAVCIS,ioos:station:WAVCIS:CSI06:1,2013-02-08T18:00:00Z,28.8667,-90.4833,10.0,3.344,283.0,,'11111222,11111222,99999999' 
WAVCIS,ioos:station:WAVCIS:CSI06:1,2013-02-08T19:00:00Z,28.8667,-90.4833,10.0,5.016,306.0,,'11111222,11111222,99999999' 
WAVCIS,ioos:station:WAVCIS:CSI06:1,2013-02-08T20:00:00Z,28.8667,-90.4833,10.0,6.554,301.0,,'11111222,11111222,99999999' 
WAVCIS,ioos:station:WAVCIS:CSI06:1,2013-02-08T21:00:00Z,28.8667,-90.4833,10.0,5.351,311.0,,'11111222,11111222,99999999' 
WAVCIS,ioos:station:WAVCIS:CSI06:1,2013-02-08T22:00:00Z,28.8667,-90.4833,10.0,6.816,327.0,,'11111222,11111222,99999999' 
WAVCIS,ioos:station:WAVCIS:CSI06:1,2013-02-08T23:00:00Z,28.8667,-90.4833,10.0,6.181,10.0,,'11111222,11111222,99999999' 
WAVCIS,ioos:station:WAVCIS:CSI06:1,2013-02-09T00:00:00Z,28.8667,-90.4833,10.0,6.342,14.0,,'11111222,11111222,99999999' 
WAVCIS,ioos:station:WAVCIS:CSI06:1,2013-02-09T01:00:00Z,28.8667,-90.4833,10.0,3.234,40.0,,'11111222,11111222,99999999' 
WAVCIS,ioos:station:WAVCIS:CSI06:1,2013-02-09T02:00:00Z,28.8667,-90.4833,10.0,3.014,56.0,,'11111222,11111222,99999999' 
WAVCIS,ioos:station:WAVCIS:CSI06:1,2013-02-09T03:00:00Z,28.8667,-90.4833,10.0,2.83,81.0,,'11111222,11111222,99999999' 
WAVCIS,ioos:station:WAVCIS:CSI06:1,2013-02-09T04:00:00Z,28.8667,-90.4833,10.0,3.692,98.0,,'11111222,11111222,99999999' 
WAVCIS,ioos:station:WAVCIS:CSI06:1,2013-02-09T05:00:00Z,28.8667,-90.4833,10.0,3.278,78.0,,'11111222,11111222,99999999' 